Flag for Norway Weather past 2 weeks in Mysen, Norway

Now
40 °F

Passing clouds.


Feels Like: 37 °F
Forecast: 34 / 39 °F
Wind: 5 mph from South

Location: Rygge

Current Time: Feb 27, 2015 at 4:49:58 PM

Latest Report: Feb 27, 2015 at 4:00 PM


Visibility: 22 mi

Pressure: 29.84 "Hg

Humidity: 85%

Dew point: 36 °F

Location of MysenLocation

Historic Weather in Mysen — Graph

°F

Mysen temperature yesterday

Maximum temperature yesterday: 40 °F (at 8:00 PM)
Minimum temperature yesterday: 34 °F (at 6:00 AM)
Average temperature yesterday: 37 °F

Past Weeks' High & Low Weather Summary

 TemperatureHumidityPressure
High44 °F (Feb 18, 8:00 AM)100% (Feb 13, 1:00 AM)30.53 "Hg (Feb 13, 1:00 AM)
Low24 °F (Feb 22, 4:00 AM)40% (Feb 22, 4:00 PM)29.00 "Hg (Feb 23, 1:00 PM)
Average37 °F88%29.78 "Hg
* Reported Feb 12 3:00 PM — Feb 27 3:00 PM, Mysen, Weather by CustomWeather, © 2015

Note: Actual official high and low records may vary slightly from our data, if they occured in-between our weather recording intervals... More about our weather records

Advertising

Mysen weather history for previous 24 hours

 ConditionsComfort  
Time TempWeatherWind HumidityBarometerVisibility
3:00 PM
Fri, Feb 27
41 °FPartly sunny.5 mph86%29.82 "Hg25 mi
2:00 PM42 °FScattered clouds.3 mph86%29.82 "Hg31 mi
1:00 PM41 °FLow clouds.2 mph87%29.81 "Hg16 mi
12:00 PM37 °FLow clouds.3 mph95%29.79 "Hg9 mi
11:00 AM37 °FLow clouds.5 mph98%29.76 "Hg6 mi
10:00 AM39 °FLow clouds.3 mph98%29.73 "Hg0 mi
9:00 AM38 °FRain showers. Low clouds.6 mph98%29.72 "Hg1 mi
8:00 AM37 °FDrizzle. Overcast.6 mph97%29.71 "Hg1 mi
7:00 AM35 °FLight rain. Low clouds.8 mph96%29.72 "Hg2 mi
6:00 AM35 °FLight rain. Low clouds.7 mph95%29.72 "Hg3 mi
5:00 AM36 °FLight rain. Low clouds.8 mph95%29.72 "Hg3 mi
2:00 AM37 °FLight rain. Low clouds.10 mph94%29.74 "Hg3 mi
1:00 AM37 °FLight rain. Low clouds.9 mph93%29.75 "Hg3 mi
12:00 AM37 °FLight rain. Overcast.9 mph93%29.76 "Hg3 mi
11:00 PM
Thu, Feb 26
38 °FLight rain. Overcast.10 mph91%29.77 "Hg4 mi
10:00 PM39 °FOvercast.10 mph87%29.78 "Hg6 mi
9:00 PM40 °FOvercast.12 mph84%29.80 "Hg9 mi
8:00 PM40 °FOvercast.9 mph84%29.81 "Hg7 mi
7:00 PM38 °FOvercast.9 mph87%29.83 "Hg7 mi
6:00 PM37 °FOvercast.10 mph88%29.85 "Hg7 mi
5:00 PM38 °FOvercast.9 mph87%29.86 "Hg7 mi
4:00 PM38 °FOvercast.8 mph86%29.88 "Hg8 mi
Weather by CustomWeather, © 2015

See weather overviewHow to use our weather pages